Wind_Speed
1 1 4 5 5 8 10 6 2 3 2 8 11 15 17 19 21 24 26 25 26 22 19 24 26 28 32 36 38 35 33 36 38 37 38 37 37 35
6 4 3 4 7 8 6 3 4 6 9 10 14 18 19 18 21 24 26 27 27 25 23 27 31 34 37 41 45 45 37 35 38 42 39 38 38 40
9 6 4 4 7 7 9 8 9 11 14 17 19 20 20 21 23 25 26 25 26 28 31 33 33 37 41 46 49 50 45 40 36 36 45 41 38 40
12 9 7 7 7 11 13 11 14 15 17 20 22 19 22 24 25 26 29 29 29 28 31 34 35 39 43 45 46 44 39 37 40 36 41 49 44 42
14 12 10 10 10 11 13 12 15 17 20 22 24 24 25 28 28 29 29 30 31 32 32 35 39 40 42 43 43 43 43 41 36 41 40 40 38 37
16 15 15 14 13 14 15 17 16 18 20 23 25 26 28 29 32 35 34 33 31 33 34 36 35 40 43 44 44 43 45 45 40 35 36 34 34 35
19 19 18 19 18 16 15 17 20 22 25 24 25 28 32 33 36 37 39 39 40 35 35 39 39 40 41 41 40 41 45 45 42 38 36 39 40 41
24 23 24 24 22 19 18 20 17 20 25 29 30 29 32 37 41 44 41 38 40 38 36 38 39 41 42 43 40 42 42 45 44 41 39 35 35 37
25 27 27 28 26 26 26 28 28 28 30 30 29 31 33 37 41 44 44 40 41 41 39 40 41 41 40 44 42 43 45 45 42 41 40 37 37 36
27 27 30 32 32 31 32 35 33 32 32 34 34 35 39 42 41 42 41 40 40 40 39 39 42 39 38 41 41 41 44 43 40 38 37 37 38 39
29 29 30 34 35 35 35 40 36 36 38 41 42 39 43 42 44 45 43 42 44 42 39 38 38 40 39 40 40 40 41 41 39 38 37 39 40 40
36 38 34 30 32 35 34 39 41 40 45 44 50 49 44 45 46 49 48 43 44 43 40 41 40 41 39 41 39 40 41 41 38 36 37 37 37 38
48 45 40 42 40 41 44 47 49 50 47 51 52 52 53 47 46 49 53 45 45 45 40 39 39 39 38 41 40 40 40 41 39 35 36 36 34 34
52 50 41 45 47 52 56 61 58 62 59 57 59 55 53 48 47 47 52 46 44 44 41 38 38 37 38 40 39 37 37 40 39 35 36 37 35 36
50 56 52 48 51 49 49 62 66 65 66 61 58 66 56 46 48 46 50 46 45 43 39 36 37 37 37 40 38 35 33 37 38 36 36 37 38 39
53 53 60 62 55 51 53 65 69 70 73 70 62 76 59 54 43 47 49 46 46 42 37 33 36 36 38 39 37 36 34 36 38 38 37 38 40 40
58 61 63 67 62 59 61 69 68 74 71 75 43 46 60 73 46 45 48 46 48 40 36 30 30 33 38 39 37 37 36 36 38 40 41 38 40 41
66 67 67 69 67 66 64 69 63 68 76 42 43 51 47 57 43 47 44 47 39 36 34 34 33 34 36 37 36 34 36 37 39 41 43 44 41 42
72 74 76 74 71 71 67 69 65 69 49 50 59 55 51 42 42 45 40 40 39 37 33 35 33 35 37 37 38 36 37 39 40 42 42 44 46 44
71 75 76 76 72 66 66 63 65 70 67 56 57 64 45 37 42 38 38 38 39 37 34 35 32 35 38 35 36 38 37 40 42 41 43 45 47 50
67 72 75 77 77 71 64 66 65 69 45 57 57 51 35 35 38 37 44 38 39 35 34 35 31 36 37 35 35 37 38 38 41 42 42 45 48 52
80 83 87 81 77 72 65 64 64 57 50 46 33 32 33 35 38 41 41 40 36 34 33 34 33 36 36 34 35 37 38 39 40 40 42 44 49 53
56 66 88 75 72 70 64 61 57 50 49 35 34 33 33 37 41 37 39 39 34 33 34 34 35 36 34 33 34 36 36 36 38 39 42 44 47 50
Wind_Direction
250 10 349 341 6 359 6 28 328 253 289 323 338 334 337 342 337 334 331 328 330 333 321 321 318 320 319 317 314 310 300 294 291 285 281 276 273 269
239 252 315 359 352 336 321 357 308 311 320 327 325 329 333 342 334 332 328 328 329 325 320 322 322 323 321 317 314 312 309 297 291 291 285 279 276 271
239 252 284 317 344 326 321 285 298 308 312 316 321 327 333 333 329 327 323 323 319 323 323 323 324 319 314 310 310 310 312 305 298 294 295 286 277 272
252 255 272 293 317 308 307 276 290 301 308 310 316 320 328 325 324 322 319 319 316 321 319 318 317 313 313 314 314 314 313 306 302 298 294 289 268 259
256 266 276 285 291 298 298 292 292 297 305 313 318 325 323 326 321 319 318 313 314 316 317 315 316 316 319 320 321 321 320 316 310 303 299 301 306 299
259 268 273 276 279 285 287 296 296 303 304 311 315 321 322 322 323 318 314 311 312 315 317 318 323 322 322 323 321 319 316 315 314 308 304 299 297 294
258 258 261 268 270 273 286 294 301 303 302 299 312 315 320 322 324 316 311 313 315 316 315 317 322 322 320 320 320 320 318 315 314 312 304 298 294 291
250 252 255 262 271 271 273 284 300 307 309 310 311 314 318 322 328 326 326 316 314 312 314 315 322 324 322 320 321 323 319 316 314 313 311 306 297 291
258 255 260 264 264 271 276 283 291 294 300 309 312 314 314 321 321 324 331 324 316 312 315 318 322 325 323 321 324 324 320 318 316 313 310 307 303 299
271 267 261 262 267 269 275 280 288 292 295 299 301 303 309 312 314 320 324 323 314 315 315 320 322 323 323 320 325 325 321 319 316 313 312 309 304 300
283 272 268 266 268 269 272 278 282 285 288 292 295 296 298 301 306 310 320 322 316 315 315 315 320 320 322 322 326 329 327 321 316 316 315 313 309 304
293 287 278 272 271 271 271 275 278 282 285 287 291 294 286 292 297 301 308 317 314 313 312 314 318 320 320 322 328 331 331 327 322 321 320 319 314 307
292 287 287 286 279 282 276 277 278 274 275 279 281 284 280 283 287 294 300 309 310 309 312 310 319 319 318 321 328 332 334 332 328 326 327 325 319 312
291 274 280 274 282 285 283 279 266 270 274 274 271 271 275 281 281 288 294 301 304 305 306 310 316 316 315 320 327 331 337 339 335 331 332 331 327 321
286 289 285 276 281 286 290 286 285 289 269 276 291 273 267 271 274 284 290 296 300 301 302 307 312 312 312 316 324 328 341 345 345 338 335 335 333 330
282 285 284 288 285 288 285 283 285 271 279 280 287 298 264 272 276 283 283 289 297 295 297 304 307 311 309 311 320 323 334 340 349 347 340 339 338 337
278 274 276 283 282 285 287 281 274 298 296 276 290 299 262 276 272 270 278 288 293 288 294 298 299 303 303 309 316 318 328 335 341 348 349 344 341 339
273 273 271 277 281 284 283 284 288 289 292 280 297 307 263 269 259 276 279 293 282 283 290 295 299 299 301 306 313 316 323 329 337 342 347 348 343 339
279 278 276 277 278 279 280 271 279 280 277 290 302 304 283 256 264 268 281 287 281 284 288 292 299 298 299 305 312 316 319 326 332 340 343 344 345 342
278 274 273 271 269 272 272 272 273 276 284 302 300 299 264 249 256 269 281 280 280 279 288 291 297 294 295 302 307 312 317 322 329 335 341 341 343 344
279 276 272 265 265 264 266 265 269 275 298 295 289 280 238 249 265 274 276 277 276 279 286 290 293 289 293 298 303 307 313 320 324 331 338 341 340 344
279 275 271 260 255 257 257 259 265 276 289 287 254 241 251 260 266 269 274 274 274 278 285 289 289 287 291 297 300 304 311 316 322 329 334 340 341 344
294 270 259 243 250 251 252 257 263 268 277 274 246 241 252 260 266 271 274 271 273 277 283 287 287 286 289 295 299 303 309 315 319 327 334 340 343 343
Height
5931 5930 5930 5930 5930 5928 5925 5923 5922 5921 5920 5918 5916 5913 5911 5909 5906 5903 5900 5896 5893 5891 5888 5884 5880 5879 5878 5873 5869 5865 5862 5860 5856 5854 5853 5852 5852 5853
5929 5929 5928 5928 5929 5927 5925 5923 5920 5919 5918 5916 5913 5911 5909 5908 5904 5901 5898 5895 5893 5887 5886 5882 5878 5874 5870 5865 5859 5855 5852 5851 5848 5845 5842 5842 5841 5841
5928 5927 5927 5927 5927 5926 5924 5922 5920 5918 5916 5914 5912 5909 5907 5905 5903 5900 5896 5892 5888 5886 5882 5878 5876 5871 5864 5859 5854 5848 5844 5841 5839 5837 5833 5829 5829 5830
5926 5925 5925 5924 5925 5924 5922 5921 5919 5917 5915 5912 5908 5908 5906 5904 5902 5897 5893 5888 5884 5883 5879 5875 5871 5864 5859 5853 5847 5840 5835 5832 5828 5824 5823 5819 5816 5814
5923 5923 5923 5922 5922 5922 5920 5919 5918 5916 5912 5909 5906 5906 5902 5902 5899 5894 5890 5883 5880 5877 5876 5872 5866 5860 5853 5847 5839 5834 5828 5822 5820 5816 5813 5807 5803 5803
5920 5920 5920 5919 5918 5918 5917 5916 5915 5912 5910 5905 5902 5901 5899 5897 5893 5888 5885 5881 5879 5874 5870 5864 5861 5853 5847 5841 5835 5829 5822 5817 5811 5808 5805 5801 5796 5793
5916 5915 5915 5914 5914 5913 5913 5912 5910 5907 5904 5902 5899 5896 5893 5891 5888 5884 5879 5875 5870 5868 5863 5857 5854 5849 5844 5838 5833 5824 5816 5810 5803 5798 5794 5791 5788 5784
5908 5909 5909 5909 5909 5909 5908 5906 5905 5903 5900 5896 5894 5892 5889 5885 5881 5876 5871 5869 5865 5862 5858 5852 5848 5843 5836 5830 5827 5819 5811 5803 5795 5788 5783 5780 5779 5775
5903 5904 5904 5903 5903 5902 5901 5900 5900 5899 5895 5892 5889 5885 5882 5880 5875 5868 5865 5862 5857 5854 5852 5846 5841 5836 5829 5822 5818 5810 5802 5794 5788 5780 5774 5769 5767 5764
5897 5898 5897 5896 5897 5897 5894 5893 5893 5891 5889 5885 5883 5881 5876 5872 5868 5864 5859 5856 5851 5849 5845 5839 5833 5828 5825 5819 5812 5805 5795 5788 5780 5773 5767 5761 5757 5754
5892 5889 5889 5889 5888 5889 5887 5884 5884 5882 5880 5878 5874 5873 5870 5867 5864 5859 5854 5849 5845 5842 5840 5831 5826 5822 5819 5814 5804 5799 5791 5782 5775 5767 5760 5753 5748 5744
5886 5884 5883 5882 5880 5878 5878 5875 5874 5874 5869 5869 5865 5863 5860 5857 5855 5851 5847 5843 5838 5834 5831 5824 5819 5816 5813 5807 5799 5791 5784 5776 5769 5760 5752 5744 5738 5733
5876 5875 5876 5876 5874 5872 5869 5864 5862 5860 5860 5855 5852 5849 5847 5846 5844 5843 5838 5836 5831 5826 5825 5816 5812 5808 5806 5801 5793 5786 5777 5768 5761 5752 5744 5736 5731 5726
5863 5863 5861 5863 5863 5860 5853 5848 5847 5844 5845 5844 5839 5834 5835 5835 5833 5832 5829 5828 5822 5817 5817 5810 5806 5801 5798 5795 5787 5780 5771 5763 5755 5745 5736 5728 5722 5716
5852 5847 5848 5846 5847 5846 5843 5836 5832 5831 5828 5826 5820 5817 5818 5819 5820 5821 5819 5817 5815 5810 5808 5802 5798 5795 5792 5789 5783 5775 5766 5759 5750 5740 5731 5722 5716 5708
5842 5836 5831 5829 5830 5831 5828 5823 5821 5814 5811 5809 5807 5796 5800 5805 5808 5808 5809 5809 5806 5801 5800 5794 5791 5787 5786 5782 5776 5770 5762 5755 5745 5735 5726 5717 5710 5702
5825 5820 5818 5814 5813 5816 5814 5807 5801 5799 5786 5793 5799 5798 5789 5790 5795 5792 5798 5797 5795 5792 5791 5787 5783 5781 5779 5774 5770 5763 5756 5749 5740 5730 5720 5712 5704 5697
5806 5802 5802 5801 5798 5798 5798 5793 5790 5788 5784 5782 5785 5786 5774 5779 5782 5783 5789 5785 5784 5783 5780 5777 5776 5774 5772 5769 5763 5757 5750 5743 5736 5725 5715 5707 5700 5692
5785 5784 5785 5784 5784 5785 5782 5772 5775 5776 5766 5768 5771 5769 5767 5768 5772 5776 5776 5774 5774 5774 5771 5769 5766 5767 5764 5759 5754 5751 5745 5737 5729 5719 5709 5700 5695 5688
5766 5763 5764 5763 5763 5766 5765 5762 5763 5758 5761 5755 5756 5754 5755 5760 5763 5764 5765 5766 5764 5764 5762 5761 5759 5759 5755 5751 5746 5741 5739 5731 5723 5713 5705 5695 5687 5680
5746 5739 5737 5740 5743 5746 5749 5747 5744 5749 5744 5744 5744 5745 5747 5750 5753 5755 5754 5755 5756 5754 5753 5752 5751 5750 5748 5744 5739 5735 5730 5725 5718 5708 5698 5689 5680 5673
5721 5710 5703 5710 5717 5722 5725 5728 5733 5734 5733 5730 5731 5733 5737 5741 5743 5745 5745 5746 5745 5744 5745 5743 5743 5742 5739 5735 5732 5727 5723 5717 5711 5702 5694 5685 5674 5664
5694 5682 5650 5655 5690 5697 5705 5713 5717 5720 5724 5723 5725 5726 5728 5731 5734 5734 5736 5735 5736 5736 5734 5733 5734 5733 5730 5727 5723 5720 5715 5709 5704 5695 5686 5678 5669 5660